Wetterdaten: Woche 11.01.16 - 17.01.16 (KW2)
Datum Zeit Temp. Aussen Temp. o. S. +5cm Feuchte Auss BlattFeu 1 Luftdruck Regen Sonnenschein Regendauer Solar Windben Empfang
11.01.2016 00:00 4,8 C 4,4 C 2,7 C 93 % 1 lf 992,3 hPa 0,0 l/m 0,00 h 0,00 h 5 W/m 12,8 km/h (3 Bft) 96,83 %
11.01.2016 01:00 4,1 C 3,4 C 1,7 C 93 % 2 lf 992,1 hPa 0,0 l/m 0,00 h 0,00 h 2 W/m 7,7 km/h (2 Bft) 97,94 %
11.01.2016 02:00 3,5 C 3,5 C 1,7 C 94 % 4 lf 991,7 hPa 0,0 l/m 0,00 h 0,00 h 0 W/m 11,2 km/h (2 Bft) 94,09 %
11.01.2016 03:00 3,4 C 3,6 C 1,7 C 95 % 2 lf 991,4 hPa 0,0 l/m 0,00 h 0,00 h 0 W/m 11,9 km/h (2 Bft) 96,44 %
11.01.2016 04:00 2,9 C 2,5 C 0,8 C 95 % 2 lf 990,6 hPa 0,2 l/m 0,00 h 0,00 h 0 W/m 8,3 km/h (2 Bft) 95,15 %
11.01.2016 05:00 2,1 C 2,1 C 0,6 C 95 % 6 lf 989,8 hPa 0,0 l/m 0,00 h 0,00 h 0 W/m 9,9 km/h (2 Bft) 96,37 %
11.01.2016 06:00 1,7 C 1,7 C 0,2 C 95 % 12 lf 988,8 hPa 0,0 l/m 0,00 h 0,00 h 0 W/m 11,3 km/h (2 Bft) 96,35 %
11.01.2016 07:00 1,9 C 2,4 C 0,9 C 96 % 13 lf 988,3 hPa 0,0 l/m 0,00 h 0,00 h 0 W/m 15,1 km/h (3 Bft) 96,16 %
11.01.2016 08:00 2,4 C 2,8 C 1,1 C 96 % 5 lf 987,9 hPa 0,0 l/m 0,00 h 0,00 h 8 W/m 16,8 km/h (3 Bft) 95,02 %
11.01.2016 09:00 2,7 C 3,3 C 1,8 C 96 % 1 lf 987,5 hPa 0,0 l/m 0,00 h 0,00 h 33 W/m 15,5 km/h (3 Bft) 95,95 %
11.01.2016 10:00 3,7 C 4,2 C 2,9 C 97 % 0 lf 987,2 hPa 0,2 l/m 0,00 h 0,37 h 37 W/m 17,1 km/h (3 Bft) 98,29 %
11.01.2016 11:00 4,7 C 5,0 C 3,4 C 97 % 7 lf 986,9 hPa 2,0 l/m 0,00 h 0,83 h 18 W/m 18,8 km/h (3 Bft) 93,51 %
11.01.2016 12:00 5,2 C 5,2 C 4,0 C 97 % 15 lf 985,5 hPa 2,0 l/m 0,00 h 1,00 h 43 W/m 21,7 km/h (4 Bft) 95,74 %
11.01.2016 13:00 5,5 C 5,6 C 4,4 C 97 % 15 lf 984,6 hPa 0,2 l/m 0,00 h 0,17 h 59 W/m 19,7 km/h (3 Bft) 97,01 %
11.01.2016 14:00 5,8 C 6,0 C 4,5 C 97 % 13 lf 984,1 hPa 0,0 l/m 0,00 h 0,03 h 54 W/m 18,7 km/h (3 Bft) 95,59 %
11.01.2016 15:00 6,5 C 6,5 C 5,0 C 96 % 0 lf 983,9 hPa 0,0 l/m 0,00 h 0,10 h 46 W/m 18,5 km/h (3 Bft) 96,08 %
11.01.2016 16:00 6,6 C 6,4 C 4,9 C 94 % 2 lf 984,1 hPa 0,2 l/m 0,00 h 0,33 h 12 W/m 17,2 km/h (3 Bft) 95,87 %
11.01.2016 17:00 6,5 C 5,9 C 4,3 C 94 % 11 lf 984,3 hPa 0,2 l/m 0,00 h 0,17 h 0 W/m 20,2 km/h (4 Bft) 94,30 %
11.01.2016 18:00 5,9 C 5,2 C 3,9 C 93 % 11 lf 984,6 hPa 0,4 l/m 0,00 h 0,80 h 0 W/m 20,6 km/h (4 Bft) 97,37 %
11.01.2016 19:00 5,7 C 5,6 C 4,1 C 95 % 15 lf 984,9 hPa 0,0 l/m 0,00 h 0,00 h 0 W/m 14,2 km/h (3 Bft) 97,37 %
11.01.2016 20:00 5,9 C 5,8 C 4,4 C 96 % 7 lf 985,2 hPa 0,0 l/m 0,00 h 0,00 h 0 W/m 19,6 km/h (3 Bft) 94,00 %
11.01.2016 21:00 5,9 C 5,7 C 4,2 C 95 % 14 lf 985,8 hPa 0,2 l/m 0,00 h 0,33 h 0 W/m 25,0 km/h (4 Bft) 96,95 %
11.01.2016 22:00 5,9 C 5,6 C 4,3 C 96 % 15 lf 986,1 hPa 0,0 l/m 0,00 h 0,03 h 0 W/m 25,2 km/h (4 Bft) 95,80 %
11.01.2016 23:00 5,9 C 5,6 C 4,1 C 95 % 13 lf 986,9 hPa 0,0 l/m 0,00 h 0,17 h 0 W/m 27,5 km/h (4 Bft) 97,00 %
12.01.2016 00:00 6,0 C 5,7 C 4,1 C 93 % 0 lf 987,5 hPa 0,0 l/m 0,00 h 0,07 h 0 W/m 22,3 km/h (4 Bft) 94,63 %
12.01.2016 01:00 6,2 C 6,1 C 4,0 C 91 % 0 lf 988,0 hPa 0,0 l/m 0,00 h 0,00 h 0 W/m 24,5 km/h (4 Bft) 95,87 %
12.01.2016 02:00 6,1 C 5,7 C 3,9 C 91 % 10 lf 988,6 hPa 0,6 l/m 0,00 h 0,63 h 0 W/m 19,2 km/h (3 Bft) 96,73 %
12.01.2016 03:00 5,7 C 5,1 C 3,9 C 94 % 15 lf 989,4 hPa 0,2 l/m 0,00 h 0,23 h 0 W/m 19,6 km/h (3 Bft) 95,31 %
12.01.2016 04:00 5,3 C 5,0 C 3,9 C 95 % 15 lf 990,3 hPa 0,2 l/m 0,00 h 0,53 h 0 W/m 19,4 km/h (3 Bft) 97,27 %
12.01.2016 05:00 5,2 C 5,0 C 3,9 C 96 % 15 lf 991,0 hPa 0,0 l/m 0,00 h 0,00 h 0 W/m 18,2 km/h (3 Bft) 94,66 %
12.01.2016 06:00 5,1 C 4,8 C 3,3 C 95 % 15 lf 991,4 hPa 0,0 l/m 0,00 h 0,03 h 0 W/m 21,5 km/h (4 Bft) 95,30 %
12.01.2016 07:00 5,1 C 4,9 C 3,5 C 95 % 15 lf 992,1 hPa 0,2 l/m 0,00 h 0,20 h 0 W/m 24,8 km/h (4 Bft) 97,51 %
12.01.2016 08:00 5,1 C 4,8 C 3,3 C 95 % 15 lf 993,1 hPa 0,0 l/m 0,00 h 0,33 h 8 W/m 26,1 km/h (4 Bft) 97,22 %
12.01.2016 09:00 4,9 C 5,0 C 3,3 C 95 % 14 lf 993,8 hPa 0,2 l/m 0,43 h 0,00 h 48 W/m 25,3 km/h (4 Bft) 93,38 %
12.01.2016 10:00 5,4 C 5,8 C 3,8 C 93 % 2 lf 994,6 hPa 0,0 l/m 0,30 h 0,20 h 90 W/m 26,3 km/h (4 Bft) 97,79 %
12.01.2016 11:00 6,2 C 8,7 C 4,6 C 91 % 0 lf 995,1 hPa 0,0 l/m 0,37 h 0,00 h 144 W/m 28,7 km/h (4 Bft) 95,46 %
12.01.2016 12:00 7,1 C 9,6 C 5,2 C 86 % 0 lf 995,2 hPa 0,0 l/m 0,37 h 0,00 h 158 W/m 35,0 km/h (5 Bft) 96,69 %
12.01.2016 13:00 7,3 C 8,3 C 5,4 C 82 % 0 lf 995,2 hPa 0,0 l/m 0,07 h 0,00 h 98 W/m 31,7 km/h (5 Bft) 94,96 %
12.01.2016 14:00 7,3 C 8,0 C 5,6 C 83 % 0 lf 995,5 hPa 0,0 l/m 0,00 h 0,00 h 60 W/m 24,7 km/h (4 Bft) 96,24 %
12.01.2016 15:00 7,3 C 7,9 C 5,7 C 81 % 0 lf 995,7 hPa 0,0 l/m 0,37 h 0,00 h 61 W/m 27,6 km/h (4 Bft) 95,80 %
12.01.2016 16:00 7,1 C 7,3 C 5,5 C 80 % 0 lf 996,0 hPa 0,0 l/m 0,13 h 0,00 h 17 W/m 25,2 km/h (4 Bft) 97,65 %
12.01.2016 17:00 6,4 C 6,2 C 4,5 C 82 % 0 lf 996,5 hPa 0,0 l/m 0,00 h 0,00 h 0 W/m 25,0 km/h (4 Bft) 94,52 %
12.01.2016 18:00 5,6 C 5,6 C 3,9 C 85 % 0 lf 996,9 hPa 0,0 l/m 0,00 h 0,00 h 0 W/m 24,5 km/h (4 Bft) 95,34 %
12.01.2016 19:00 5,4 C 5,5 C 3,9 C 85 % 0 lf 997,1 hPa 0,0 l/m 0,00 h 0,00 h 0 W/m 30,9 km/h (5 Bft) 96,51 %
12.01.2016 20:00 5,4 C 5,6 C 4,0 C 87 % 1 lf 997,4 hPa 0,0 l/m 0,00 h 0,23 h 0 W/m 29,9 km/h (5 Bft) 97,01 %
12.01.2016 21:00 5,3 C 5,6 C 3,9 C 89 % 0 lf 997,7 hPa 0,0 l/m 0,00 h 0,07 h 0 W/m 30,5 km/h (5 Bft) 94,52 %
12.01.2016 22:00 5,2 C 5,2 C 3,5 C 91 % 13 lf 998,1 hPa 0,0 l/m 0,00 h 0,60 h 0 W/m 28,2 km/h (4 Bft) 94,59 %
12.01.2016 23:00 5,3 C 5,0 C 3,6 C 91 % 9 lf 998,2 hPa 0,8 l/m 0,00 h 0,67 h 0 W/m 28,0 km/h (4 Bft) 98,29 %
13.01.2016 00:00 5,0 C 4,4 C 3,3 C 93 % 15 lf 998,5 hPa 0,4 l/m 0,00 h 0,53 h 0 W/m 34,9 km/h (5 Bft) 94,68 %
13.01.2016 01:00 4,6 C 4,3 C 2,9 C 94 % 15 lf 998,6 hPa 0,0 l/m 0,00 h 0,73 h 0 W/m 36,2 km/h (5 Bft) 95,94 %
13.01.2016 02:00 4,8 C 4,4 C 3,3 C 95 % 15 lf 998,5 hPa 0,6 l/m 0,00 h 0,80 h 0 W/m 39,1 km/h (6 Bft) 95,94 %
13.01.2016 03:00 5,0 C 4,9 C 3,5 C 95 % 15 lf 999,1 hPa 0,4 l/m 0,00 h 0,97 h 0 W/m 38,2 km/h (5 Bft) 95,09 %
13.01.2016 04:00 5,3 C 5,0 C 3,9 C 96 % 15 lf 1000,6 hPa 0,2 l/m 0,00 h 0,22 h 0 W/m 34,1 km/h (5 Bft) 98,09 %
13.01.2016 05:00 5,5 C 5,2 C 3,9 C 96 % 15 lf 1002,4 hPa 0,0 l/m 0,00 h 0,47 h 0 W/m 31,9 km/h (5 Bft) 96,87 %
13.01.2016 06:00 5,4 C 5,0 C 3,9 C 96 % 15 lf 1004,4 hPa 0,2 l/m 0,00 h 0,33 h 0 W/m 29,2 km/h (5 Bft) 93,24 %
13.01.2016 07:00 5,2 C 4,7 C 3,3 C 95 % 15 lf 1006,4 hPa 0,0 l/m 0,00 h 0,00 h 0 W/m 25,7 km/h (4 Bft) 97,30 %
13.01.2016 08:00 5,3 C 5,0 C 3,9 C 95 % 14 lf 1008,0 hPa 0,0 l/m 0,00 h 0,00 h 8 W/m 19,9 km/h (4 Bft) 97,87 %
13.01.2016 09:00 5,3 C 5,4 C 3,9 C 94 % 11 lf 1009,5 hPa 0,0 l/m 0,10 h 0,03 h 36 W/m 19,6 km/h (3 Bft) 94,16 %
13.01.2016 10:00 5,6 C 6,9 C 4,3 C 94 % 9 lf 1010,6 hPa 0,0 l/m 0,60 h 0,17 h 119 W/m 22,6 km/h (4 Bft) 96,22 %
13.01.2016 11:00 5,9 C 6,9 C 4,5 C 94 % 15 lf 1011,6 hPa 0,6 l/m 0,17 h 0,23 h 107 W/m 21,9 km/h (4 Bft) 95,93 %
13.01.2016 12:00 5,3 C 4,8 C 3,6 C 94 % 15 lf 1012,4 hPa 2,0 l/m 0,00 h 0,83 h 40 W/m 22,7 km/h (4 Bft) 95,94 %
13.01.2016 13:00 5,1 C 5,0 C 3,7 C 95 % 15 lf 1012,7 hPa 0,6 l/m 0,03 h 0,67 h 60 W/m 23,4 km/h (4 Bft) 96,44 %
13.01.2016 14:00 5,0 C 5,1 C 3,8 C 96 % 15 lf 1013,0 hPa 0,4 l/m 0,00 h 0,40 h 51 W/m 20,2 km/h (4 Bft) 94,95 %
13.01.2016 15:00 5,1 C 5,0 C 3,7 C 96 % 15 lf 1013,4 hPa 0,0 l/m 0,00 h 0,37 h 25 W/m 22,8 km/h (4 Bft) 95,16 %
13.01.2016 16:00 4,8 C 4,4 C 3,1 C 95 % 15 lf 1013,8 hPa 0,0 l/m 0,00 h 0,03 h 13 W/m 25,0 km/h (4 Bft) 97,16 %
13.01.2016 17:00 4,4 C 4,0 C 2,5 C 94 % 12 lf 1014,2 hPa 0,0 l/m 0,00 h 0,00 h 0 W/m 19,7 km/h (3 Bft) 96,94 %
13.01.2016 18:00 4,0 C 3,5 C 2,0 C 93 % 9 lf 1014,5 hPa 0,0 l/m 0,00 h 0,00 h 0 W/m 19,9 km/h (4 Bft) 94,38 %
13.01.2016 19:00 3,4 C 3,0 C 1,4 C 93 % 7 lf 1014,7 hPa 0,0 l/m 0,00 h 0,00 h 0 W/m 18,5 km/h (3 Bft) 95,16 %
13.01.2016 20:00 3,1 C 3,0 C 1,3 C 93 % 4 lf 1014,7 hPa 0,0 l/m 0,00 h 0,00 h 0 W/m 14,8 km/h (3 Bft) 97,72 %
13.01.2016 21:00 2,7 C 2,7 C 0,7 C 93 % 1 lf 1014,7 hPa 0,0 l/m 0,00 h 0,00 h 0 W/m 11,5 km/h (2 Bft) 96,51 %
13.01.2016 22:00 2,4 C 2,4 C 0,6 C 92 % 0 lf 1014,7 hPa 0,0 l/m 0,00 h 0,00 h 0 W/m 15,7 km/h (3 Bft) 95,66 %
13.01.2016 23:00 2,2 C 2,2 C 0,8 C 92 % 0 lf 1014,6 hPa 0,0 l/m 0,00 h 0,00 h 0 W/m 16,3 km/h (3 Bft) 96,23 %
14.01.2016 00:00 2,2 C 2,2 C 0,8 C 92 % 0 lf 1014,2 hPa 0,0 l/m 0,00 h 0,00 h 0 W/m 16,0 km/h (3 Bft) 94,92 %
14.01.2016 01:00 2,2 C 2,2 C 1,0 C 93 % 0 lf 1013,3 hPa 0,0 l/m 0,00 h 0,00 h 0 W/m 13,5 km/h (3 Bft) 97,29 %
14.01.2016 02:00 2,0 C 2,1 C 0,6 C 93 % 0 lf 1012,5 hPa 0,0 l/m 0,00 h 0,00 h 0 W/m 12,9 km/h (3 Bft) 96,94 %
14.01.2016 03:00 1,7 C 1,6 C 0,1 C 92 % 0 lf 1011,6 hPa 0,0 l/m 0,00 h 0,00 h 0 W/m 11,8 km/h (2 Bft) 94,94 %
14.01.2016 04:00 0,9 C 0,9 C -0,6 C 92 % 0 lf 1010,6 hPa 0,0 l/m 0,00 h 0,00 h 0 W/m 12,4 km/h (3 Bft) 95,29 %
14.01.2016 05:00 0,5 C 0,6 C -0,6 C 93 % 0 lf 1009,7 hPa 0,0 l/m 0,00 h 0,00 h 0 W/m 15,6 km/h (3 Bft) 96,93 %
14.01.2016 06:00 0,5 C 0,6 C -0,6 C 94 % 0 lf 1008,5 hPa 0,0 l/m 0,00 h 0,00 h 0 W/m 16,5 km/h (3 Bft) 98,50 %
14.01.2016 07:00 1,0 C 1,6 C 0,4 C 94 % 0 lf 1007,3 hPa 0,2 l/m 0,00 h 0,00 h 0 W/m 19,2 km/h (3 Bft) 92,89 %
14.01.2016 08:00 1,9 C 2,4 C 1,0 C 94 % 0 lf 1006,3 hPa 0,0 l/m 0,17 h 0,00 h 14 W/m 20,9 km/h (4 Bft) 97,17 %
14.01.2016 09:00 2,7 C 3,3 C 2,0 C 93 % 0 lf 1005,5 hPa 0,0 l/m 0,07 h 0,00 h 37 W/m 19,6 km/h (3 Bft) 96,95 %
14.01.2016 10:00 3,3 C 3,3 C 2,1 C 92 % 0 lf 1004,8 hPa 0,2 l/m 0,00 h 0,60 h 30 W/m 17,5 km/h (3 Bft) 96,02 %
14.01.2016 11:00 3,6 C 3,2 C 2,1 C 93 % 12 lf 1004,6 hPa 1,6 l/m 0,00 h 1,00 h 29 W/m 22,1 km/h (4 Bft) 97,54 %
14.01.2016 12:00 3,0 C 2,9 C 1,8 C 94 % 15 lf 1004,0 hPa 0,4 l/m 0,00 h 0,63 h 51 W/m 26,8 km/h (4 Bft) 93,75 %
14.01.2016 13:00 2,8 C 2,9 C 1,8 C 95 % 15 lf 1003,3 hPa 0,0 l/m 0,00 h 0,00 h 66 W/m 18,5 km/h (3 Bft) 95,85 %
14.01.2016 14:00 2,9 C 3,1 C 1,7 C 95 % 12 lf 1002,7 hPa 0,0 l/m 0,00 h 0,00 h 73 W/m 18,5 km/h (3 Bft) 96,17 %
14.01.2016 15:00 3,3 C 3,8 C 1,8 C 93 % 2 lf 1002,4 hPa 0,0 l/m 0,87 h 0,00 h 100 W/m 21,8 km/h (4 Bft) 97,71 %
14.01.2016 16:00 3,3 C 3,5 C 1,4 C 90 % 0 lf 1002,1 hPa 0,0 l/m 0,00 h 0,00 h 18 W/m 22,2 km/h (4 Bft) 94,16 %
14.01.2016 17:00 2,9 C 3,1 C 1,0 C 91 % 0 lf 1001,8 hPa 0,0 l/m 0,00 h 0,00 h 5 W/m 20,8 km/h (4 Bft) 95,51 %
14.01.2016 18:00 3,0 C 3,1 C 1,2 C 91 % 0 lf 1001,5 hPa 0,0 l/m 0,00 h 0,20 h 0 W/m 24,3 km/h (4 Bft) 97,65 %
14.01.2016 19:00 2,8 C 3,0 C 1,3 C 93 % 0 lf 1001,1 hPa 0,0 l/m 0,00 h 0,00 h 0 W/m 20,8 km/h (4 Bft) 95,80 %
14.01.2016 20:00 3,2 C 3,6 C 2,0 C 93 % 0 lf 1000,9 hPa 0,0 l/m 0,00 h 0,00 h 0 W/m 24,3 km/h (4 Bft) 95,74 %
14.01.2016 21:00 3,7 C 3,8 C 2,4 C 90 % 3 lf 1000,8 hPa 0,0 l/m 0,00 h 0,37 h 0 W/m 30,9 km/h (5 Bft) 95,57 %
14.01.2016 22:00 3,7 C 3,9 C 2,3 C 90 % 0 lf 1000,7 hPa 0,0 l/m 0,00 h 0,07 h 0 W/m 31,5 km/h (5 Bft) 94,42 %
14.01.2016 23:00 3,4 C 3,5 C 2,2 C 90 % 0 lf 1000,5 hPa 0,0 l/m 0,00 h 0,03 h 0 W/m 37,1 km/h (5 Bft) 96,65 %
15.01.2016 00:00 3,1 C 3,3 C 2,1 C 88 % 0 lf 1000,0 hPa 0,0 l/m 0,00 h 0,00 h 0 W/m 41,8 km/h (6 Bft) 98,05 %
15.01.2016 01:00 2,5 C 2,1 C 1,0 C 88 % 11 lf 999,6 hPa 0,4 l/m 0,00 h 0,93 h 0 W/m 40,9 km/h (6 Bft) 94,17 %
15.01.2016 02:00 1,5 C 1,2 C 0,3 C 93 % 15 lf 999,7 hPa 0,0 l/m 0,00 h 0,70 h 0 W/m 32,6 km/h (5 Bft) 96,47 %
15.01.2016 03:00 1,6 C 1,5 C 0,6 C 95 % 15 lf 1000,0 hPa 0,0 l/m 0,00 h 0,17 h 0 W/m 24,5 km/h (4 Bft) 96,01 %
15.01.2016 04:00 1,9 C 2,1 C 0,9 C 96 % 15 lf 1000,4 hPa 0,0 l/m 0,00 h 0,43 h 0 W/m 26,0 km/h (4 Bft) 96,95 %
15.01.2016 05:00 2,4 C 2,7 C 1,1 C 95 % 12 lf 1001,0 hPa 0,2 l/m 0,00 h 0,20 h 0 W/m 31,1 km/h (5 Bft) 96,09 %
15.01.2016 06:00 2,6 C 2,8 C 1,1 C 92 % 1 lf 1001,7 hPa 0,0 l/m 0,00 h 0,00 h 0 W/m 27,5 km/h (4 Bft) 94,38 %
15.01.2016 07:00 2,6 C 2,8 C 1,3 C 90 % 0 lf 1002,6 hPa 0,0 l/m 0,00 h 0,00 h 0 W/m 27,5 km/h (4 Bft) 98,16 %
15.01.2016 08:00 2,7 C 2,8 C 1,7 C 89 % 0 lf 1003,8 hPa 0,0 l/m 0,00 h 0,00 h 5 W/m 25,4 km/h (4 Bft) 94,59 %
15.01.2016 09:00 2,7 C 2,8 C 1,7 C 90 % 0 lf 1005,2 hPa 0,0 l/m 0,00 h 0,10 h 7 W/m 16,3 km/h (3 Bft) 98,71 %
15.01.2016 10:00 2,7 C 2,9 C 1,7 C 92 % 1 lf 1006,4 hPa 0,0 l/m 0,00 h 0,03 h 20 W/m 18,7 km/h (3 Bft) 95,36 %
15.01.2016 11:00 2,7 C 3,3 C 1,7 C 92 % 0 lf 1007,5 hPa 0,0 l/m 0,00 h 0,00 h 25 W/m 16,4 km/h (3 Bft) 94,24 %
15.01.2016 12:00 2,8 C 3,3 C 2,1 C 92 % 0 lf 1008,2 hPa 0,0 l/m 0,00 h 0,00 h 34 W/m 14,4 km/h (3 Bft) 98,15 %
15.01.2016 13:00 3,0 C 4,0 C 2,6 C 92 % 0 lf 1008,9 hPa 0,0 l/m 0,00 h 0,00 h 80 W/m 16,7 km/h (3 Bft) 96,33 %
15.01.2016 14:00 3,2 C 4,6 C 2,3 C 91 % 0 lf 1009,8 hPa 0,0 l/m 0,20 h 0,00 h 77 W/m 14,3 km/h (3 Bft) 95,43 %
15.01.2016 15:00 3,2 C 3,9 C 2,1 C 91 % 0 lf 1010,7 hPa 0,0 l/m 0,07 h 0,00 h 56 W/m 12,7 km/h (3 Bft) 96,15 %
15.01.2016 16:00 3,1 C 3,3 C 2,1 C 91 % 0 lf 1011,9 hPa 0,0 l/m 0,30 h 0,00 h 22 W/m 11,3 km/h (2 Bft) 96,16 %
15.01.2016 17:00 2,9 C 2,9 C 1,7 C 91 % 0 lf 1012,9 hPa 0,0 l/m 0,00 h 0,00 h 4 W/m 11,3 km/h (2 Bft) 96,30 %
15.01.2016 18:00 2,9 C 3,2 C 1,7 C 92 % 0 lf 1014,0 hPa 0,0 l/m 0,00 h 0,00 h 0 W/m 16,8 km/h (3 Bft) 96,80 %
15.01.2016 19:00 2,8 C 2,8 C 1,7 C 92 % 0 lf 1014,9 hPa 0,0 l/m 0,00 h 0,00 h 0 W/m 15,0 km/h (3 Bft) 94,54 %
15.01.2016 20:00 2,7 C 2,8 C 1,7 C 93 % 0 lf 1015,9 hPa 0,0 l/m 0,00 h 0,00 h 0 W/m 15,6 km/h (3 Bft) 96,44 %
15.01.2016 21:00 2,5 C 2,8 C 1,6 C 93 % 0 lf 1016,9 hPa 0,0 l/m 0,00 h 0,00 h 0 W/m 14,1 km/h (3 Bft) 96,19 %
15.01.2016 22:00 2,1 C 2,1 C 1,1 C 91 % 0 lf 1017,6 hPa 0,0 l/m 0,00 h 0,00 h 0 W/m 10,6 km/h (2 Bft) 98,22 %
15.01.2016 23:00 1,9 C 2,2 C 1,1 C 91 % 0 lf 1018,4 hPa 0,0 l/m 0,00 h 0,00 h 0 W/m 9,1 km/h (2 Bft) 93,66 %
16.01.2016 00:00 1,9 C 2,2 C 1,1 C 92 % 0 lf 1019,1 hPa 0,0 l/m 0,00 h 0,00 h 0 W/m 7,3 km/h (2 Bft) 95,64 %
16.01.2016 01:00 1,8 C 1,8 C 1,0 C 92 % 0 lf 1019,5 hPa 0,0 l/m 0,00 h 0,00 h 0 W/m 6,3 km/h (2 Bft) 98,07 %
16.01.2016 02:00 1,5 C 1,0 C 0,1 C 91 % 0 lf 1019,8 hPa 0,0 l/m 0,00 h 0,00 h 0 W/m 5,5 km/h (1 Bft) 94,67 %
16.01.2016 03:00 0,6 C -0,7 C -1,7 C 90 % 0 lf 1020,0 hPa 0,0 l/m 0,00 h 0,00 h 0 W/m 6,3 km/h (2 Bft) 97,51 %
16.01.2016 04:00 0,0 C -1,0 C -1,7 C 91 % 4 lf 1020,0 hPa 0,0 l/m 0,00 h 0,00 h 0 W/m 8,3 km/h (2 Bft) 95,33 %
16.01.2016 05:00 -0,5 C -1,0 C -2,0 C 93 % 12 lf 1019,7 hPa 0,0 l/m 0,00 h 0,00 h 0 W/m 7,3 km/h (2 Bft) 95,61 %
16.01.2016 06:00 0,1 C 0,2 C -0,7 C 95 % 14 lf 1019,4 hPa 0,0 l/m 0,00 h 0,23 h 0 W/m 15,2 km/h (3 Bft) 97,22 %
16.01.2016 07:00 0,9 C 1,3 C 0,2 C 96 % 15 lf 1018,8 hPa 0,2 l/m 0,00 h 0,30 h 0 W/m 18,5 km/h (3 Bft) 96,22 %
16.01.2016 08:00 1,6 C 1,8 C 0,6 C 97 % 15 lf 1018,4 hPa 0,2 l/m 0,00 h 0,27 h 5 W/m 21,1 km/h (4 Bft) 93,86 %
16.01.2016 09:00 2,1 C 2,4 C 1,1 C 97 % 15 lf 1018,5 hPa 0,2 l/m 0,00 h 0,30 h 19 W/m 22,5 km/h (4 Bft) 95,60 %
16.01.2016 10:00 2,8 C 3,5 C 1,8 C 97 % 15 lf 1018,5 hPa 0,0 l/m 0,23 h 0,37 h 89 W/m 25,9 km/h (4 Bft) 96,90 %
16.01.2016 11:00 3,3 C 4,2 C 1,9 C 94 % 7 lf 1018,7 hPa 0,0 l/m 0,10 h 0,43 h 81 W/m 35,4 km/h (5 Bft) 96,03 %
16.01.2016 12:00 2,8 C 2,8 C 1,2 C 91 % 15 lf 1019,1 hPa 0,2 l/m 0,00 h 0,97 h 61 W/m 36,8 km/h (5 Bft) 95,45 %
16.01.2016 13:00 2,1 C 2,3 C 0,8 C 93 % 15 lf 1019,6 hPa 0,2 l/m 0,00 h 0,97 h 64 W/m 36,3 km/h (5 Bft) 95,87 %
16.01.2016 14:00 2,3 C 3,3 C 1,0 C 92 % 11 lf 1020,1 hPa 0,0 l/m 0,10 h 0,17 h 86 W/m 33,0 km/h (5 Bft) 96,37 %
16.01.2016 15:00 2,8 C 3,5 C 1,0 C 89 % 3 lf 1020,9 hPa 0,0 l/m 0,37 h 0,20 h 65 W/m 28,4 km/h (4 Bft) 94,45 %
16.01.2016 16:00 2,2 C 2,1 C 0,4 C 89 % 15 lf 1021,4 hPa 0,0 l/m 0,10 h 0,30 h 19 W/m 19,0 km/h (3 Bft) 97,53 %
16.01.2016 17:00 1,7 C 1,3 C -0,2 C 90 % 14 lf 1021,8 hPa 0,0 l/m 0,00 h 0,03 h 5 W/m 15,3 km/h (3 Bft) 93,68 %
16.01.2016 18:00 0,9 C 0,1 C -1,2 C 90 % 6 lf 1022,1 hPa 0,0 l/m 0,00 h 0,00 h 0 W/m 12,3 km/h (3 Bft) 95,73 %
16.01.2016 19:00 0,2 C -0,8 C -1,9 C 91 % 3 lf 1022,4 hPa 0,0 l/m 0,00 h 0,00 h 0 W/m 9,2 km/h (2 Bft) 97,79 %
16.01.2016 20:00 -0,1 C -0,3 C -1,2 C 92 % 2 lf 1022,2 hPa 0,0 l/m 0,00 h 0,00 h 0 W/m 14,4 km/h (3 Bft) 95,51 %
16.01.2016 21:00 0,3 C 0,4 C -0,7 C 93 % 0 lf 1022,3 hPa 0,0 l/m 0,00 h 0,03 h 0 W/m 13,9 km/h (3 Bft) 95,80 %
16.01.2016 22:00 0,2 C 0,0 C -1,1 C 92 % 0 lf 1022,0 hPa 0,0 l/m 0,00 h 0,00 h 0 W/m 16,6 km/h (3 Bft) 94,80 %
16.01.2016 23:00 0,3 C 0,2 C -0,9 C 93 % 10 lf 1022,0 hPa 0,0 l/m 0,00 h 0,40 h 0 W/m 20,1 km/h (4 Bft) 97,73 %
17.01.2016 00:00 0,2 C 0,1 C -1,0 C 94 % 12 lf 1022,0 hPa 0,0 l/m 0,00 h 0,00 h 0 W/m 14,3 km/h (3 Bft) 95,34 %
17.01.2016 01:00 0,4 C 0,6 C -0,6 C 95 % 15 lf 1021,8 hPa 0,0 l/m 0,00 h 0,13 h 0 W/m 18,3 km/h (3 Bft) 97,18 %
17.01.2016 02:00 0,3 C 0,5 C -0,7 C 95 % 14 lf 1021,8 hPa 0,0 l/m 0,00 h 0,17 h 0 W/m 19,6 km/h (3 Bft) 95,36 %
17.01.2016 03:00 0,2 C 0,0 C -1,0 C 95 % 6 lf 1022,0 hPa 0,0 l/m 0,00 h 0,10 h 0 W/m 18,5 km/h (3 Bft) 94,68 %
17.01.2016 04:00 -0,4 C -1,0 C -1,9 C 95 % 1 lf 1022,1 hPa 0,0 l/m 0,00 h 0,00 h 0 W/m 14,6 km/h (3 Bft) 98,48 %
17.01.2016 05:00 -0,9 C -1,1 C -2,2 C 95 % 1 lf 1022,2 hPa 0,0 l/m 0,00 h 0,00 h 0 W/m 17,5 km/h (3 Bft) 97,21 %
17.01.2016 06:00 -1,0 C -0,9 C -1,9 C 94 % 1 lf 1022,5 hPa 0,0 l/m 0,00 h 0,00 h 0 W/m 19,0 km/h (3 Bft) 94,89 %
17.01.2016 07:00 -1,0 C -1,4 C -2,2 C 94 % 0 lf 1023,2 hPa 0,0 l/m 0,00 h 0,00 h 0 W/m 18,4 km/h (3 Bft) 96,01 %
17.01.2016 08:00 -1,2 C -1,5 C -2,4 C 93 % 0 lf 1023,9 hPa 0,0 l/m 0,00 h 0,00 h 10 W/m 11,4 km/h (2 Bft) 96,79 %
17.01.2016 09:00 -1,3 C -0,7 C -2,0 C 93 % 0 lf 1024,6 hPa 0,0 l/m 0,57 h 0,00 h 59 W/m 13,2 km/h (3 Bft) 95,58 %
17.01.2016 10:00 -0,7 C 1,8 C -1,2 C 93 % 1 lf 1025,1 hPa 0,0 l/m 1,00 h 0,00 h 158 W/m 13,2 km/h (3 Bft) 97,43 %
17.01.2016 11:00 0,1 C 7,2 C -0,5 C 91 % 6 lf 1025,7 hPa 0,2 l/m 0,93 h 0,00 h 224 W/m 13,1 km/h (3 Bft) 94,24 %
17.01.2016 12:00 0,9 C 7,5 C 0,1 C 84 % 6 lf 1025,9 hPa 0,0 l/m 0,90 h 0,00 h 245 W/m 12,6 km/h (3 Bft) 96,66 %
17.01.2016 13:00 1,1 C 2,7 C 0,5 C 82 % 0 lf 1026,0 hPa 0,0 l/m 0,20 h 0,00 h 120 W/m 11,7 km/h (2 Bft) 96,65 %
17.01.2016 14:00 1,1 C 2,3 C 0,6 C 82 % 0 lf 1026,0 hPa 0,0 l/m 0,03 h 0,00 h 86 W/m 8,5 km/h (2 Bft) 94,59 %
17.01.2016 15:00 1,0 C 1,4 C 0,1 C 81 % 0 lf 1026,3 hPa 0,0 l/m 0,00 h 0,00 h 29 W/m 6,2 km/h (2 Bft) 96,44 %
17.01.2016 16:00 0,7 C 0,8 C -0,3 C 83 % 0 lf 1026,3 hPa 0,0 l/m 0,00 h 0,00 h 17 W/m 3,8 km/h (1 Bft) 96,94 %
17.01.2016 17:00 0,1 C -1,3 C -2,7 C 84 % 0 lf 1026,3 hPa 0,0 l/m 0,00 h 0,00 h 6 W/m 0,9 km/h (0 Bft) 96,72 %
17.01.2016 18:00 -1,3 C -2,7 C -3,8 C 85 % 0 lf 1026,4 hPa 0,0 l/m 0,00 h 0,00 h 0 W/m 1,5 km/h (1 Bft) 94,75 %
17.01.2016 19:00 -2,5 C -3,9 C -4,4 C 87 % 0 lf 1026,6 hPa 0,0 l/m 0,00 h 0,00 h 0 W/m 0,8 km/h (0 Bft) 95,16 %
17.01.2016 20:00 -3,3 C -4,3 C -5,0 C 88 % 0 lf 1026,4 hPa 0,0 l/m 0,00 h 0,00 h 0 W/m 0,0 km/h (0 Bft) 98,79 %
17.01.2016 21:00 -3,9 C -5,0 C -5,5 C 90 % 0 lf 1026,2 hPa 0,0 l/m 0,00 h 0,00 h 0 W/m 0,1 km/h (0 Bft) 96,05 %
17.01.2016 22:00 -4,3 C -4,7 C -5,7 C 92 % 0 lf 1025,8 hPa 0,0 l/m 0,00 h 0,00 h 0 W/m 0,6 km/h (0 Bft) 96,50 %
17.01.2016 23:00 -4,6 C -5,5 C -6,1 C 92 % 0 lf 1025,6 hPa 0,0 l/m 0,00 h 0,00 h 0 W/m 0,0 km/h (0 Bft) 95,10 %
Min-Datum _ 17.01.16 17.01.16 17.01.16 12.01.16 11.01.16 11.01.16 - - - - 17.01.16 13.01.16
_ Min-Zeit 23:40 23:44 22:46 15:58 00:06 15:28 - - - - 16:52 06:10
Minimum _ -4,7 C -6,1 C -6,1 C 79 % 0 lf 983,8 hPa - - - - 0,0 km/h (0 Bft) 84,78 %
Max-Datum _ 12.01.16 12.01.16 12.01.16 11.01.16 11.01.16 17.01.16 11.01.16 12.01.16 11.01.16 12.01.16 15.01.16 11.01.16
_ Max-Zeit 13:02 11:26 15:30 14:16 11:36 18:56 11:28 09:08 10:18 12:16 01:32 00:10
Maximum _ 7,5 C 13,9 C 6,1 C 98 % 15 lf 1026,7 hPa 2,0 l/m 0,03 h 0,03 h 346 W/m 60,7 km/h
W-SW (7 Bft)
100,00 %
Durchschnitt _ 2,9 C 3,1 C 1,5 C 92 % 6 lf 1006,9 hPa #17,4 l/m #9:08 h #25:49 h 53 W/m 19,4 km/h (3 Bft) 96,04 %
© 2016 W. Hausmann